Flag for Germany Weather past 2 weeks in Schorndorf, Baden-Württemberg, Germany

Now
54 °F

Passing clouds.


Feels Like: 54 °F
Forecast: 39 / 66 °F
Wind: 2 mph from East

Location: Stuttgart-Echterdingen


UV Index: 3 (Moderate)

Visibility: 13 mi


Pressure: 29.71 "Hg

Humidity: 80%

Dew point: 48 °F

Location of SchorndorfLocation

Historic Weather in Schorndorf

°F

Schorndorf temperature yesterday

Maximum temperature yesterday: 58 °F (at 7:00 PM)
Minimum temperature yesterday: 37 °F (at 6:00 AM)
Average temperature yesterday: 45 °F

Past Weeks' High & Low Weather Summary

 TemperatureHumidityPressure
High70 °F (Apr 7, 4:00 PM)97% (Apr 19, 4:00 AM)30.42 "Hg (Apr 19, 4:00 AM)
Low33 °F (Apr 17, 6:00 AM)25% (Apr 17, 5:00 PM)29.71 "Hg (Apr 20, 10:00 AM)
Average50 °F66%30.09 "Hg
* Reported Apr 5 10:00 AM — Apr 20 10:00 AM, Schorndorf, Weather by CustomWeather, © 2014

Note: Actual official high and low records may vary slightly from our data, if they occured in-between our weather recording intervals... More about our weather records

Advertising

Historic Weather Conditions — Data for Previous 24 hours

 ConditionsComfort  
Time TempWeatherWind HumidityBarometerVisibility
10:00 AM
Apr 20
54 °FPassing clouds.2 mph80%29.71 "Hg12 mi
9:00 AM47 °FScattered clouds.No wind91%29.74 "Hg12 mi
8:00 AM46 °FScattered clouds.No wind90%29.74 "Hg16 mi
7:00 AM44 °FPassing clouds.1 mph94%29.73 "Hg9 mi
6:00 AM44 °FPassing clouds.2 mph93%29.73 "Hg9 mi
5:00 AM46 °FPassing clouds.1 mph88%29.73 "Hg9 mi
4:00 AM48 °FPassing clouds.1 mph84%29.73 "Hg9 mi
3:00 AM45 °FPassing clouds.1 mph90%29.76 "Hg8 mi
2:00 AM48 °FPassing clouds.1 mph87%29.76 "Hg9 mi
1:00 AM49 °FPassing clouds.1 mph83%29.78 "Hg9 mi
12:00 AM50 °FPassing clouds.2 mph84%29.79 "Hg9 mi
11:00 PM
Apr 19
50 °FPassing clouds.3 mph84%29.79 "Hg9 mi
10:00 PM51 °FOvercast.1 mph81%29.80 "Hg10 mi
9:00 PM54 °FOvercast.1 mph73%29.79 "Hg11 mi
8:00 PM56 °FPartly sunny.1 mph66%29.77 "Hg10 mi
7:00 PM58 °FPartly sunny.1 mph62%29.77 "Hg47 mi
6:00 PM57 °FPartly sunny.1 mph62%29.78 "Hg12 mi
4:00 PM52 °FOvercast.2 mph68%29.82 "Hg12 mi
3:00 PM50 °FOvercast.3 mph71%29.85 "Hg12 mi
2:00 PM47 °FOvercast.5 mph78%29.88 "Hg16 mi
1:00 PM46 °FOvercast.3 mph81%29.90 "Hg11 mi
12:00 PM44 °FOvercast.6 mph84%29.92 "Hg11 mi
11:00 AM41 °FLow clouds.5 mph90%29.94 "Hg11 mi
Weather by CustomWeather, © 2014

See weather overview